| time (UTC) | temp F | wind direction | speed MPH | gust MPH | rain 1hr in | rain 24hr in | rain mn in | humidity % | barometer mb |
| 20260503230206 | 61 | 256 | 3.0 | 14.0 | 0.00 | 0.00 | 0.00 | 25 | 1006.8 |
| 20260503225707 | 61 | 15 | 4.0 | 14.0 | 0.00 | 0.00 | 0.00 | 25 | 1006.8 |
| 20260503225207 | 61 | 177 | 5.0 | 14.0 | 0.00 | 0.00 | 0.00 | 25 | 1006.8 |
| 20260503224705 | 61 | 325 | 4.0 | 13.0 | 0.00 | 0.00 | 0.00 | 25 | 1006.7 |
| 20260503222707 | 61 | 271 | 4.0 | 17.0 | 0.00 | 0.00 | 0.00 | 25 | 1006.8 |
| 20260503222206 | 61 | 17 | 6.0 | 17.0 | 0.00 | 0.00 | 0.00 | 24 | 1006.6 |
| 20260503221706 | 61 | 67 | 7.0 | 17.0 | 0.00 | 0.00 | 0.00 | 23 | 1006.7 |
| 20260503221206 | 61 | 311 | 6.0 | 14.0 | 0.00 | 0.00 | 0.00 | 23 | 1006.8 |
| 20260503220706 | 61 | 26 | 4.0 | 13.0 | 0.00 | 0.00 | 0.00 | 24 | 1006.7 |
| 20260503220206 | 61 | 313 | 5.0 | 13.0 | 0.00 | 0.00 | 0.00 | 24 | 1006.8 |
| 20260503215706 | 61 | 182 | 4.0 | 16.0 | 0.00 | 0.00 | 0.00 | 24 | 1006.9 |
| 20260503215206 | 61 | 266 | 7.0 | 16.0 | 0.00 | 0.00 | 0.00 | 24 | 1006.9 |
| 20260503213705 | 61 | 267 | 9.0 | 20.0 | 0.00 | 0.00 | 0.00 | 23 | 1007.0 |
| 20260503213206 | 61 | 293 | 7.0 | 20.0 | 0.00 | 0.00 | 0.00 | 24 | 1007.1 |
| 20260503212706 | 62 | 262 | 4.0 | 18.0 | 0.00 | 0.00 | 0.00 | 24 | 1007.0 |
| 20260503212207 | 61 | 5 | 7.0 | 20.0 | 0.00 | 0.00 | 0.00 | 24 | 1007.0 |
| 20260503211706 | 61 | 15 | 3.0 | 20.0 | 0.00 | 0.00 | 0.00 | 25 | 1006.9 |
| 20260503211207 | 61 | 318 | 7.0 | 20.0 | 0.00 | 0.00 | 0.00 | 24 | 1006.9 |
| 20260503210706 | 61 | 321 | 9.0 | 20.0 | 0.00 | 0.00 | 0.00 | 24 | 1006.9 |
| 20260503205205 | 61 | 229 | 5.0 | 17.0 | 0.00 | 0.00 | 0.00 | 25 | 1006.8 |
| 20260503204706 | 61 | 240 | 7.0 | 16.0 | 0.00 | 0.00 | 0.00 | 25 | 1006.8 |
| 20260503204207 | 60 | 346 | 7.0 | 20.0 | 0.00 | 0.00 | 0.00 | 26 | 1006.8 |
| 20260503203706 | 60 | 263 | 4.0 | 20.0 | 0.00 | 0.00 | 0.00 | 25 | 1006.9 |
| 20260503203206 | 60 | 315 | 6.0 | 16.0 | 0.00 | 0.00 | 0.00 | 25 | 1006.9 |
| 20260503202706 | 60 | 302 | 6.0 | 15.0 | 0.00 | 0.00 | 0.00 | 25 | 1006.9 |
| 20260503202206 | 61 | 310 | 8.0 | 15.0 | 0.00 | 0.00 | 0.00 | 25 | 1007.0 |
| 20260503201707 | 60 | 276 | 5.0 | 20.0 | 0.00 | 0.00 | 0.00 | 25 | 1006.9 |
| 20260503201206 | 60 | 210 | 5.0 | 20.0 | 0.00 | 0.00 | 0.00 | 25 | 1007.0 |
| 20260503195705 | 60 | 266 | 7.0 | 16.0 | 0.00 | 0.00 | 0.00 | 26 | 1007.3 |
| 20260503195206 | 59 | 249 | 3.0 | 20.0 | 0.00 | 0.00 | 0.00 | 28 | 1007.2 |
| 20260503194206 | 59 | 271 | 6.0 | 15.0 | 0.00 | 0.00 | 0.00 | 27 | 1007.3 |
| 20260503193706 | 59 | 265 | 5.0 | 14.0 | 0.00 | 0.00 | 0.00 | 27 | 1007.3 |
| 20260503193205 | 59 | 321 | 6.0 | 13.0 | 0.00 | 0.00 | 0.00 | 27 | 1007.2 |
| 20260503192705 | 58 | 295 | 3.0 | 20.0 | 0.00 | 0.00 | 0.00 | 28 | 1007.3 |
| 20260503191706 | 59 | 267 | 7.0 | 18.0 | 0.00 | 0.00 | 0.00 | 28 | 1007.5 |
| 20260503191206 | 59 | 284 | 6.0 | 18.0 | 0.00 | 0.00 | 0.00 | 28 | 1007.5 |
| 20260503190706 | 60 | 304 | 4.0 | 12.0 | 0.00 | 0.00 | 0.00 | 27 | 1007.4 |
| 20260503185706 | 59 | 265 | 6.0 | 15.0 | 0.00 | 0.00 | 0.00 | 28 | 1007.7 |
| 20260503185206 | 58 | 265 | 7.0 | 16.0 | 0.00 | 0.00 | 0.00 | 29 | 1007.7 |
| 20260503184706 | 58 | 281 | 6.0 | 17.0 | 0.00 | 0.00 | 0.00 | 28 | 1008.0 |
| 20260503183705 | 58 | 300 | 6.0 | 20.0 | 0.00 | 0.00 | 0.00 | 29 | 1008.0 |
| 20260503183206 | 59 | 274 | 6.0 | 18.0 | 0.00 | 0.00 | 0.00 | 29 | 1007.9 |
| 20260503182706 | 58 | 271 | 7.0 | 17.0 | 0.00 | 0.00 | 0.00 | 29 | 1007.9 |
| 20260503182206 | 57 | 283 | 6.0 | 20.0 | 0.00 | 0.00 | 0.00 | 31 | 1008.0 |
| 20260503181205 | 57 | 252 | 5.0 | 20.0 | 0.00 | 0.00 | 0.00 | 31 | 1008.0 |
| 20260503180705 | 56 | 215 | 7.0 | 20.0 | 0.00 | 0.00 | 0.00 | 32 | 1008.1 |
| 20260503175706 | 57 | 245 | 6.0 | 20.0 | 0.00 | 0.00 | 0.00 | 31 | 1008.1 |
| 20260503174706 | 55 | 274 | 6.0 | 15.0 | 0.00 | 0.00 | 0.00 | 34 | 1008.2 |
| 20260503173706 | 56 | 290 | 5.0 | 20.0 | 0.00 | 0.00 | 0.00 | 32 | 1008.2 |
| 20260503173205 | 56 | 273 | 6.0 | 20.0 | 0.00 | 0.00 | 0.00 | 33 | 1008.3 |
| 20260503172705 | 56 | 264 | 6.0 | 17.0 | 0.00 | 0.00 | 0.00 | 33 | 1008.2 |
| 20260503171705 | 56 | 238 | 5.0 | 20.0 | 0.00 | 0.00 | 0.00 | 33 | 1008.1 |
| 20260503170705 | 55 | 246 | 7.0 | 20.0 | 0.00 | 0.00 | 0.00 | 33 | 1008.2 |
| 20260503170206 | 55 | 252 | 7.0 | 20.0 | 0.00 | 0.00 | 0.00 | 33 | 1008.3 |
| 20260503160206 | 55 | 254 | 5.0 | 21.0 | 0.00 | 0.00 | 0.00 | 32 | 1008.5 |
| 20260503150705 | 52 | 284 | 7.0 | 21.0 | 0.00 | 0.00 | 0.00 | 32 | 1008.7 |
| 20260503150206 | 52 | 277 | 5.0 | 15.0 | 0.00 | 0.00 | 0.00 | 34 | 1008.7 |
| 20260503131205 | 50 | 308 | 7.0 | 18.0 | 0.00 | 0.00 | 0.00 | 46 | 1008.9 |
| 20260503130705 | 50 | 304 | 6.0 | 14.0 | 0.00 | 0.00 | 0.00 | 47 | 1008.9 |
| 20260503120205 | 46 | 292 | 5.0 | 13.0 | 0.00 | 0.00 | 0.00 | 51 | 1008.8 |
| 20260503110704 | 46 | 258 | 5.0 | 15.0 | 0.00 | 0.00 | 0.00 | 53 | 1008.4 |
| 20260503110205 | 46 | 323 | 5.0 | 13.0 | 0.00 | 0.00 | 0.00 | 53 | 1008.4 |
| 20260503090205 | 47 | 0 | 5.0 | 12.0 | 0.00 | 0.01 | 0.00 | 51 | 1006.8 |
| 20260503081204 | 48 | 301 | 4.0 | 12.0 | 0.00 | 0.01 | 0.00 | 50 | 1006.9 |
| 20260503080704 | 48 | 17 | 4.0 | 13.0 | 0.00 | 0.01 | 0.00 | 50 | 1006.9 |
| 20260503080204 | 48 | 345 | 5.0 | 13.0 | 0.00 | 0.01 | 0.00 | 49 | 1006.9 |
| 20260503072204 | 49 | 347 | 6.0 | 12.0 | 0.00 | 0.01 | 0.00 | 48 | 1006.9 |
| 20260503071704 | 49 | 315 | 3.0 | 12.0 | 0.00 | 0.01 | 0.00 | 48 | 1006.9 |
| 20260503071205 | 49 | 5 | 5.0 | 12.0 | 0.00 | 0.01 | 0.00 | 48 | 1006.9 |
| 20260503070204 | 49 | 343 | 3.0 | 10.0 | 0.00 | 0.01 | 0.00 | 47 | 1006.8 |
| 20260503060204 | 51 | 341 | 3.0 | 12.0 | 0.00 | 0.01 | 0.00 | 44 | 1007.0 |
| 20260503054705 | 52 | 349 | 4.0 | 9.0 | 0.00 | 0.01 | 0.00 | 44 | 1007.0 |
| 20260503054204 | 52 | 352 | 4.0 | 10.0 | 0.00 | 0.01 | 0.00 | 43 | 1007.1 |
| 20260503053204 | 52 | 27 | 3.0 | 7.0 | 0.00 | 0.01 | 0.00 | 41 | 1007.0 |
| 20260503052704 | 52 | 300 | 3.0 | 9.0 | 0.00 | 0.01 | 0.00 | 40 | 1007.1 |
| 20260503052204 | 52 | 348 | 4.0 | 9.0 | 0.00 | 0.01 | 0.00 | 40 | 1007.2 |
| 20260503051705 | 52 | 320 | 4.0 | 9.0 | 0.00 | 0.01 | 0.00 | 40 | 1007.4 |
| 20260503051204 | 52 | 316 | 2.0 | 8.0 | 0.00 | 0.01 | 0.00 | 39 | 1007.4 |
| 20260503050705 | 52 | 355 | 4.0 | 8.0 | 0.00 | 0.01 | 0.00 | 39 | 1007.4 |
| 20260503050204 | 52 | 328 | 3.0 | 10.0 | 0.00 | 0.01 | 0.00 | 39 | 1007.4 |
| 20260503045707 | 52 | 324 | 3.0 | 12.0 | 0.00 | 0.01 | 0.00 | 38 | 1007.5 |
| 20260503045207 | 52 | 331 | 6.0 | 12.0 | 0.00 | 0.01 | 0.00 | 38 | 1007.6 |
| 20260503044206 | 53 | 297 | 4.0 | 15.0 | 0.00 | 0.01 | 0.00 | 38 | 1007.4 |
| 20260503043707 | 53 | 247 | 6.0 | 15.0 | 0.00 | 0.01 | 0.00 | 37 | 1007.5 |
| 20260503043206 | 53 | 316 | 6.0 | 15.0 | 0.00 | 0.01 | 0.00 | 37 | 1007.4 |
| 20260503042707 | 53 | 19 | 3.0 | 12.0 | 0.00 | 0.01 | 0.00 | 38 | 1007.5 |
| 20260503042208 | 53 | 295 | 5.0 | 12.0 | 0.00 | 0.01 | 0.00 | 37 | 1007.5 |
| 20260503041707 | 53 | 351 | 3.0 | 10.0 | 0.00 | 0.01 | 0.00 | 36 | 1007.5 |
| 20260503041207 | 53 | 303 | 5.0 | 10.0 | 0.00 | 0.01 | 0.00 | 36 | 1007.5 |
| 20260503040207 | 54 | 5 | 4.0 | 13.0 | 0.00 | 0.01 | 0.00 | 36 | 1007.6 |
| 20260503034706 | 54 | 331 | 6.0 | 12.0 | 0.00 | 0.01 | 0.01 | 35 | 1007.6 |
| 20260503034207 | 54 | 36 | 3.0 | 12.0 | 0.00 | 0.01 | 0.01 | 35 | 1007.4 |
| 20260503033706 | 54 | 250 | 5.0 | 13.0 | 0.00 | 0.01 | 0.01 | 35 | 1007.4 |
| 20260503032707 | 54 | 298 | 5.0 | 13.0 | 0.00 | 0.01 | 0.01 | 35 | 1007.4 |
| 20260503032206 | 54 | 329 | 8.0 | 13.0 | 0.00 | 0.01 | 0.01 | 34 | 1007.4 |
| 20260503031707 | 54 | 5 | 6.0 | 13.0 | 0.00 | 0.01 | 0.01 | 35 | 1007.4 |
| 20260503031206 | 54 | 32 | 5.0 | 12.0 | 0.00 | 0.01 | 0.01 | 35 | 1007.5 |
| 20260503030706 | 55 | 355 | 4.0 | 14.0 | 0.00 | 0.01 | 0.01 | 35 | 1007.5 |
| 20260503030206 | 55 | 329 | 5.0 | 14.0 | 0.00 | 0.01 | 0.01 | 34 | 1007.6 |
| 20260503025706 | 55 | 304 | 4.0 | 12.0 | 0.00 | 0.01 | 0.01 | 34 | 1007.7 |
| 20260503025206 | 55 | 262 | 5.0 | 12.0 | 0.00 | 0.01 | 0.01 | 34 | 1007.8 |
| 20260503024707 | 55 | 34 | 3.0 | 12.0 | 0.00 | 0.01 | 0.01 | 35 | 1007.7 |
| 20260503024207 | 55 | 317 | 4.0 | 9.0 | 0.00 | 0.01 | 0.01 | 36 | 1007.6 |
| 20260503023706 | 55 | 328 | 3.0 | 9.0 | 0.00 | 0.01 | 0.01 | 35 | 1007.6 |
| 20260503022206 | 55 | 298 | 3.0 | 12.0 | 0.00 | 0.01 | 0.01 | 35 | 1007.5 |
| 20260503021706 | 55 | 355 | 5.0 | 12.0 | 0.00 | 0.01 | 0.01 | 35 | 1007.5 |
| 20260503021207 | 55 | 269 | 5.0 | 12.0 | 0.00 | 0.01 | 0.01 | 35 | 1007.6 |
| 20260503020707 | 55 | 326 | 3.0 | 10.0 | 0.00 | 0.01 | 0.01 | 35 | 1007.8 |
| 20260503020207 | 56 | 329 | 5.0 | 12.0 | 0.00 | 0.01 | 0.01 | 34 | 1007.7 |
| 20260503015706 | 56 | 333 | 5.0 | 12.0 | 0.00 | 0.01 | 0.01 | 34 | 1007.8 |
| 20260503015206 | 56 | 307 | 5.0 | 12.0 | 0.00 | 0.01 | 0.01 | 34 | 1007.8 |
| 20260503014706 | 56 | 319 | 4.0 | 12.0 | 0.00 | 0.01 | 0.01 | 34 | 1008.0 |
| 20260503014207 | 56 | 338 | 5.0 | 12.0 | 0.00 | 0.01 | 0.01 | 33 | 1007.9 |
| 20260503013706 | 56 | 317 | 5.0 | 13.0 | 0.00 | 0.01 | 0.01 | 33 | 1007.8 |
| 20260503013206 | 56 | 347 | 5.0 | 13.0 | 0.00 | 0.01 | 0.01 | 34 | 1007.9 |
| 20260503012706 | 56 | 11 | 3.0 | 12.0 | 0.00 | 0.01 | 0.01 | 34 | 1007.9 |
| 20260503012206 | 56 | 4 | 3.0 | 12.0 | 0.00 | 0.01 | 0.01 | 34 | 1007.8 |
| 20260503011707 | 56 | 302 | 3.0 | 10.0 | 0.00 | 0.01 | 0.01 | 34 | 1007.7 |
| 20260503011206 | 56 | 320 | 6.0 | 10.0 | 0.00 | 0.01 | 0.01 | 34 | 1007.8 |
| 20260503010706 | 57 | 275 | 5.0 | 12.0 | 0.00 | 0.01 | 0.01 | 34 | 1007.7 |
| 20260503010206 | 57 | 315 | 5.0 | 12.0 | 0.00 | 0.01 | 0.01 | 34 | 1007.6 |
| 20260503005706 | 57 | 343 | 6.0 | 12.0 | 0.00 | 0.01 | 0.01 | 34 | 1007.5 |
| 20260503005206 | 57 | 338 | 4.0 | 9.0 | 0.00 | 0.01 | 0.01 | 34 | 1007.4 |
| 20260503004706 | 57 | 329 | 4.0 | 9.0 | 0.00 | 0.01 | 0.01 | 33 | 1007.4 |
| 20260503004206 | 57 | 24 | 3.0 | 10.0 | 0.00 | 0.01 | 0.01 | 33 | 1007.3 |
| 20260503003706 | 57 | 23 | 3.0 | 12.0 | 0.00 | 0.01 | 0.01 | 33 | 1007.2 |
| 20260503003206 | 57 | 317 | 6.0 | 12.0 | 0.00 | 0.01 | 0.01 | 33 | 1007.2 |
| 20260503002206 | 57 | 337 | 5.0 | 15.0 | 0.00 | 0.01 | 0.01 | 32 | 1007.2 |
| 20260503001705 | 58 | 289 | 5.0 | 15.0 | 0.00 | 0.01 | 0.01 | 33 | 1007.1 |
| 20260503001206 | 58 | 310 | 4.0 | 10.0 | 0.00 | 0.01 | 0.01 | 32 | 1007.0 |
| 20260503000706 | 58 | 276 | 3.0 | 10.0 | 0.00 | 0.01 | 0.01 | 32 | 1007.0 |
| 20260502235206 | 59 | 5 | 5.0 | 13.0 | 0.00 | 0.01 | 0.01 | 32 | 1006.9 |
| 20260502234706 | 59 | 290 | 6.0 | 13.0 | 0.00 | 0.01 | 0.01 | 31 | 1006.9 |
| 20260502233706 | 59 | 335 | 6.0 | 12.0 | 0.00 | 0.01 | 0.01 | 31 | 1006.7 |
| 20260502233206 | 59 | 254 | 4.0 | 12.0 | 0.00 | 0.01 | 0.01 | 31 | 1006.6 |
| 20260502232206 | 60 | 274 | 4.0 | 10.0 | 0.00 | 0.01 | 0.01 | 31 | 1006.5 |
| 20260502231706 | 60 | 210 | 5.0 | 10.0 | 0.00 | 0.01 | 0.01 | 31 | 1006.5 |
| 20260502231207 | 60 | 311 | 2.0 | 12.0 | 0.00 | 0.01 | 0.01 | 31 | 1006.5 |
| 20260502230706 | 60 | 244 | 2.0 | 12.0 | 0.00 | 0.01 | 0.01 | 31 | 1006.5 |